(199706) = 2003 TE52 = 2006 HW45

Discovered at Kitt Peak on 2006-04-25 by Spacewatch.

Orbit

Orbit type: Main Belt

Note: WebGL enabled browser required.

epoch2023-02-25.0
epoch JD2460000.5
perihelion date2020-07-28.22045
perihelion JD2459058.72045
argument of perihelion (°)271.13939
ascending node (°)180.88866
inclination (°)9.23770
eccentricity0.0278604
perihelion distance (AU)2.9399968
Tisserand w.r.t. Jupiter3.2
ΔV w.r.t. Earth (km/sec)11.0
semimajor axis (AU)3.0242538
mean anomaly (°)176.49230
mean daily motion (°/day)0.18740300
aphelion distance (AU)3.109
period (years)5.26
P-vector [x]-0.03518769
P-vector [y]0.96885498
P-vector [z]0.24511598
Q-vector [x]-0.99937762
Q-vector [y]-0.03350176
Q-vector [z]-0.01104556
absolute magnitude15.96
phase slope0.15
uncertainty0
referenceMPO 745323
observations used395
oppositions16
arc length (days)9860
first opposition used1996
last opposition used2023
residual rms (arc-secs)0.69
perturbers coarse indicatorM-v
perturbers precise indicator003Ek
first observation date used1996-06-16.0
last observation date used2023-06-15.0
computer nameMPCLINUX
JD of orbit computation2456966.787386
perihelion JD uncertainty (days)9.0229E-04
argument of perihelion uncertainty (°)1.6986E-04
ascending node uncertainty (°)2.2591E-05
inclination uncertainty (°)7.8604E-06
eccentricity uncertainty 3.2923E-08
perihelion distance uncertainty (AU)1.0539E-07
Minimum Orbit Intersection Distances (in AU)
for orbit epoch: 2460000.5, reference: E2023-M35
Mercury2.62482
Venus2.23379
Earth1.97474
Mars1.33701
Jupiter1.93509
Saturn6.16371
Uranus15.4392
Neptune26.8545

Observations

407 total observations over interval: 1996 06 16.27806 – 2023 06 15.555025
These data are available for download (format description).

Date (UT) J2000 RA J2000 Dec Magn Location Ref
1996 06 16.27806 15 37 18.76 -07 30 51.5   691 – Steward Observatory, Kitt Peak-Spacewatch MPS 171420
1996 06 16.29957 15 37 18.07 -07 30 51.2 20.6 V 691 – Steward Observatory, Kitt Peak-Spacewatch MPS 171420
1996 06 16.32434 15 37 17.21 -07 30 49.5   691 – Steward Observatory, Kitt Peak-Spacewatch MPS 171420
2003 09 28.31339 01 42 00.06 +06 06 17.5 20.9 V 691 – Steward Observatory, Kitt Peak-Spacewatch MPS 171420
2003 09 28.34521 01 41 58.88 +06 06 04.8 21.0 V 691 – Steward Observatory, Kitt Peak-Spacewatch MPS 171420
2003 09 28.39447 01 41 57.07 +06 05 45.0 20.7 V 691 – Steward Observatory, Kitt Peak-Spacewatch MPS 171420
2003 10 05.27426 01 37 36.86 +05 17 59.2 20.5 V 691 – Steward Observatory, Kitt Peak-Spacewatch MPS 109856
2003 10 05.30126 01 37 35.73 +05 17 47.8 20.8 V 691 – Steward Observatory, Kitt Peak-Spacewatch MPS 109856
2003 10 05.32876 01 37 34.56 +05 17 36.5 20.1 V 691 – Steward Observatory, Kitt Peak-Spacewatch MPS 109856
2003 10 23.25346 01 24 50.41 +03 12 01.4 20.4 V 691 – Steward Observatory, Kitt Peak-Spacewatch MPS 109856
2003 10 23.28038 01 24 49.24 +03 11 50.7 20.7 V 691 – Steward Observatory, Kitt Peak-Spacewatch MPS 109856
2003 10 23.30702 01 24 48.05 +03 11 40.4 20.4 V 691 – Steward Observatory, Kitt Peak-Spacewatch MPS 109856
2003 11 20.187810 01 09 34.045 +00 56 14.57 20.93 V 645 – Apache Point-Sloan Digital Sky Survey MPS 171420
2003 11 20.191282 01 09 33.976 +00 56 13.90 21.78   645 – Apache Point-Sloan Digital Sky Survey MPS 171420
2006 02 22.45463 13 23 48.51 -07 14 32.0 21.0 V G96 – Mt. Lemmon Survey MPS 171420
2006 02 22.46263 13 23 48.44 -07 14 31.2 20.6 V G96 – Mt. Lemmon Survey MPS 171420
2006 02 22.47061 13 23 48.40 -07 14 28.3 20.2 V G96 – Mt. Lemmon Survey MPS 171420
2006 02 22.47861 13 23 48.37 -07 14 26.3 20.9 V G96 – Mt. Lemmon Survey MPS 171420
2006 03 31.99759 13 06 29.58 -03 32 15.2 20.5 R 461 – University of Szeged, Piszkesteto Stn. (Konkol MPS 171420
2006 04 01.00848 13 06 29.11 -03 32 10.7   461 – University of Szeged, Piszkesteto Stn. (Konkol MPS 171420
2006 04 01.01956 13 06 28.64 -03 32 05.8   461 – University of Szeged, Piszkesteto Stn. (Konkol MPS 171420
2006 04 25.15087 12 50 13.14 -00 49 47.2   691 – Steward Observatory, Kitt Peak-Spacewatch MPS 170008
2006 04 25.17162 12 50 12.40 -00 49 39.6   691 – Steward Observatory, Kitt Peak-Spacewatch MPS 170008
2006 04 25.19235 12 50 11.65 -00 49 32.8   691 – Steward Observatory, Kitt Peak-Spacewatch MPS 170008
2006 04 26.16679 12 49 38.16 -00 44 05.8 20.5 V 691 – Steward Observatory, Kitt Peak-Spacewatch MPS 170008
2006 04 26.18805 12 49 37.45 -00 43 58.9 20.6 V 691 – Steward Observatory, Kitt Peak-Spacewatch MPS 170008
2006 04 26.20909 12 49 36.69 -00 43 51.7 20.5 V 691 – Steward Observatory, Kitt Peak-Spacewatch MPS 170008
2006 04 27.14598 12 49 05.39 -00 38 45.2 21.3 V 691 – Steward Observatory, Kitt Peak-Spacewatch MPS 170008
2006 04 27.17020 12 49 04.55 -00 38 36.8 21.1 V 691 – Steward Observatory, Kitt Peak-Spacewatch MPS 170008
2006 04 27.19100 12 49 03.83 -00 38 30.7 21.3 V 691 – Steward Observatory, Kitt Peak-Spacewatch MPS 170008
2006 04 30.13530 12 47 30.22 -00 23 13.3 20.4 V 691 – Steward Observatory, Kitt Peak-Spacewatch MPS 170904
2006 04 30.15326 12 47 29.70 -00 23 08.1 21.0 V 691 – Steward Observatory, Kitt Peak-Spacewatch MPS 170904
2006 04 30.17123 12 47 29.11 -00 23 02.9 20.4 V 691 – Steward Observatory, Kitt Peak-Spacewatch MPS 170904
2006 05 01.13682 12 47 00.27 -00 18 18.5 20.9 V 691 – Steward Observatory, Kitt Peak-Spacewatch MPS 170904
2006 05 01.15486 12 46 59.69 -00 18 13.1 20.9 V 691 – Steward Observatory, Kitt Peak-Spacewatch MPS 170904
2006 05 01.17297 12 46 59.16 -00 18 08.0 20.8 V 691 – Steward Observatory, Kitt Peak-Spacewatch MPS 170904
2008 09 02.27853 00 10 41.53 +02 28 54.9 20.5 V 691 – Steward Observatory, Kitt Peak-Spacewatch MPS 255238
2008 09 02.29608 00 10 40.92 +02 28 48.5 20.5 V 691 – Steward Observatory, Kitt Peak-Spacewatch MPS 255238
2008 09 02.31364 00 10 40.31 +02 28 42.0 20.6 V 691 – Steward Observatory, Kitt Peak-Spacewatch MPS 255238
2008 09 06.30178 00 08 22.26 +02 03 03.4   691 – Steward Observatory, Kitt Peak-Spacewatch MPS 255901
2008 09 06.31936 00 08 21.60 +02 02 56.3   691 – Steward Observatory, Kitt Peak-Spacewatch MPS 255901
2008 09 06.33696 00 08 20.92 +02 02 49.6   691 – Steward Observatory, Kitt Peak-Spacewatch MPS 255901
2008 09 21.28578 23 58 27.50 +00 15 55.2   701 – Junk Bond Observatory, Sierra Vista MPS 256757
2008 09 21.30953 23 58 26.43 +00 15 45.0   701 – Junk Bond Observatory, Sierra Vista MPS 256757
2008 09 21.35692 23 58 24.38 +00 15 23.2   701 – Junk Bond Observatory, Sierra Vista MPS 256757
2008 09 22.35270 23 57 42.76 +00 07 57.3   701 – Junk Bond Observatory, Sierra Vista MPS 256757
2008 09 22.37472 23 57 41.82 +00 07 48.0   701 – Junk Bond Observatory, Sierra Vista MPS 256757
2008 09 22.38322 23 57 41.48 +00 07 43.9   701 – Junk Bond Observatory, Sierra Vista MPS 256757
2008 09 22.40520 23 57 40.48 +00 07 34.2   701 – Junk Bond Observatory, Sierra Vista MPS 256757
2008 09 29.28980 23 52 55.77 -00 43 29.8 21.3 V 703 – Catalina Sky Survey MPS 258003
2008 09 29.29770 23 52 55.41 -00 43 34.2 20.0 V 703 – Catalina Sky Survey MPS 258003
2008 09 29.30556 23 52 55.16 -00 43 37.9 20.6 V 703 – Catalina Sky Survey MPS 258003
2008 09 29.31336 23 52 54.84 -00 43 39.7 20.0 V 703 – Catalina Sky Survey MPS 258003
2008 10 02.27392 23 50 56.43 -01 05 09.0 20.0 V G96 – Mt. Lemmon Survey MPS 258003
2008 10 02.28139 23 50 56.11 -01 05 12.6 20.0 V G96 – Mt. Lemmon Survey MPS 258003
2008 10 02.28892 23 50 55.82 -01 05 15.6 19.8 V G96 – Mt. Lemmon Survey MPS 258003
2008 10 02.29646 23 50 55.50 -01 05 18.8 20.1 V G96 – Mt. Lemmon Survey MPS 258003
2008 11 02.13472 23 37 19.70 -03 53 59.5 20.4 V G96 – Mt. Lemmon Survey MPS 263268
2008 11 02.14295 23 37 19.56 -03 54 00.9 20.6 V G96 – Mt. Lemmon Survey MPS 263268
2008 11 02.15130 23 37 19.52 -03 54 02.8 20.6 V G96 – Mt. Lemmon Survey MPS 263268
2008 11 02.15954 23 37 19.38 -03 54 03.8 20.1 V G96 – Mt. Lemmon Survey MPS 263268
2010 03 07.735758 05 29 11.906 +13 17 08.27   C51 – WISE MPS 926660
2010 03 08.198887 05 29 30.247 +13 18 56.02   C51 – WISE MPS 926660
2010 03 08.264975 05 29 32.662 +13 19 10.78   C51 – WISE MPS 926660
2010 03 08.463494 05 29 40.766 +13 19 56.24   C51 – WISE MPS 926660
2010 03 08.860406 05 29 56.551 +13 21 31.00   C51 – WISE MPS 926660
2011 02 22.35260 11 48 57.38 -01 33 37.5 20.6 V 691 – Steward Observatory, Kitt Peak-Spacewatch MPS 371866
2011 02 22.37033 11 48 56.76 -01 33 31.0 20.4 V 691 – Steward Observatory, Kitt Peak-Spacewatch MPS 371866
2011 02 22.38808 11 48 56.15 -01 33 24.8 20.4 V 691 – Steward Observatory, Kitt Peak-Spacewatch MPS 371866
2011 03 10.20409 11 38 48.32 +00 13 21.5 20.3 V 691 – Steward Observatory, Kitt Peak-Spacewatch MPS 374647
2011 03 10.22174 11 38 47.54 +00 13 29.1 20.0 V 691 – Steward Observatory, Kitt Peak-Spacewatch MPS 374647
2011 03 10.23943 11 38 46.79 +00 13 37.1 20.2 V 691 – Steward Observatory, Kitt Peak-Spacewatch MPS 374647
2011 03 14.18650 11 35 59.24 +00 43 00.1 20.0 V 691 – Steward Observatory, Kitt Peak-Spacewatch MPS 375288
2011 03 14.20418 11 35 58.45 +00 43 06.9 20.3 V 691 – Steward Observatory, Kitt Peak-Spacewatch MPS 375288
2011 03 14.22187 11 35 57.68 +00 43 15.1 20.1 V 691 – Steward Observatory, Kitt Peak-Spacewatch MPS 375288
2011 03 14.37745 11 35 50.82 +00 44 25.0 19.5 V G96 – Mt. Lemmon Survey MPS 375288
2011 03 14.38551 11 35 50.46 +00 44 28.3 19.4 V G96 – Mt. Lemmon Survey MPS 375288
2011 03 14.39351 11 35 50.10 +00 44 32.0 19.3 V G96 – Mt. Lemmon Survey MPS 375288
2011 03 14.40162 11 35 49.74 +00 44 35.8 19.8 V G96 – Mt. Lemmon Survey MPS 375288
2011 03 29.22368 11 25 42.63 +02 34 06.8 20.5 V G96 – Mt. Lemmon Survey MPS 376931
2011 03 29.22885 11 25 42.42 +02 34 08.9 20.4 V G96 – Mt. Lemmon Survey MPS 376931
2011 03 29.23406 11 25 42.20 +02 34 10.9 20.3 V G96 – Mt. Lemmon Survey MPS 376931
2011 03 29.23925 11 25 42.02 +02 34 13.2 20.3 V G96 – Mt. Lemmon Survey MPS 376931
2011 04 30.14514 11 13 59.41 +05 18 29.5 21.1 V G96 – Mt. Lemmon Survey MPS 381997
2011 04 30.15207 11 13 59.34 +05 18 30.9 20.9 V G96 – Mt. Lemmon Survey MPS 381997
